Location: Coupvray
(48.8929°N, 2.7967°E)
Time: 23:31:08
(UTC+00:00)

Cosmos 724 - Pass Details

Date: 25 October 2020
Orbit: 851 x 943 km, 65.6° (Epoch: 28 November)

Event Time Altitude Azimuth Distance (km) Brightness Sun altitude
Exits shadow 04:59:55 - 322° (NW) 2,946 6.6 -14.6°
Reaches altitude 10° 05:01:18 10° 331° (NNW) 2,603 6.4 -14.4°
Maximum altitude 05:05:20 18° 13° (NNE) 2,105 6.4 -13.7°
Drops below altitude 10° 05:09:25 10° 55° (NE) 2,639 7.6 -13.0°
Sets 05:12:53 0° 74° (ENE) 3,594 8.9 -12.5°
